Wind_Speed
7 7 8 8 9 9 9 10 11 12 13 13 13 13 14 14 14 14 15 15 16 18 20 21 22 24 25 26 26 27 27 27 27 26 26 26 26 26 26 25 25 25 26 26
7 7 8 8 9 9 10 10 11 12 13 13 13 14 14 14 14 15 16 17 17 18 20 22 22 23 24 25 25 26 26 26 26 26 25 25 25 26 25 25 24 24 25 26
7 7 8 9 9 10 11 11 12 13 13 13 14 14 14 14 15 15 16 17 18 18 19 19 21 22 22 22 23 24 24 24 24 24 24 25 24 24 24 24 24 25 25 26
6 7 8 9 10 10 11 12 13 13 13 14 14 14 14 14 14 15 16 17 18 18 18 18 20 21 21 22 22 23 22 23 22 22 22 22 23 23 23 24 23 23 24 24
6 7 8 10 10 11 12 12 13 13 13 13 13 13 13 13 13 14 15 15 16 16 16 16 17 17 17 18 19 19 19 20 20 20 21 21 21 21 22 22 22 23 23 23
6 7 9 10 11 11 12 12 12 12 12 11 11 11 11 12 13 14 14 15 15 15 15 15 16 16 16 17 18 18 18 18 19 19 19 20 20 20 20 21 21 21 21 21
6 7 8 10 11 11 11 11 12 11 11 10 10 10 11 11 12 12 12 13 14 15 14 14 14 15 16 17 17 17 17 17 17 18 18 18 19 19 19 19 19 19 20 19
5 6 8 9 10 11 11 11 11 10 10 10 9 9 10 9 10 10 11 11 12 12 12 12 12 13 14 14 14 15 15 16 16 17 17 17 18 18 18 18 18 18 17 16
4 6 7 8 9 10 11 11 11 10 10 9 9 8 8 8 8 9 9 10 10 11 12 12 12 13 12 12 13 13 14 14 14 14 15 16 16 16 16 16 16 15 14 14
4 5 6 8 9 10 11 11 10 10 9 9 8 8 7 7 7 7 8 9 9 10 10 11 11 12 12 12 12 12 13 13 13 13 13 13 13 14 14 13 13 13 12 12
2 4 5 7 9 10 11 11 11 10 9 8 7 7 7 6 5 6 6 7 8 9 9 10 10 10 10 10 11 11 11 11 12 12 12 12 12 12 12 12 11 11 11 11
1 3 5 7 9 10 11 11 11 11 10 9 8 8 7 6 5 5 4 4 5 5 6 6 7 8 8 9 9 10 10 10 10 10 10 10 10 11 11 11 11 10 10 9
1 3 5 7 9 10 11 11 11 11 11 10 9 8 8 7 5 5 4 4 3 4 4 5 6 6 7 7 8 8 8 9 9 9 9 9 9 10 10 9 9 9 9 8
2 3 5 7 9 10 11 12 12 11 11 10 10 9 9 8 7 6 5 5 4 4 4 4 5 5 5 5 5 6 7 7 7 7 8 8 8 8 8 8 8 8 7 7
3 3 5 7 9 10 12 12 12 12 12 11 11 11 10 9 8 7 7 6 5 5 4 4 3 3 2 2 3 4 4 5 5 5 6 6 6 7 7 7 6 6 6 6
3 4 5 7 9 10 12 13 13 13 13 13 12 12 11 10 10 9 8 8 7 6 5 4 3 2 1 0 1 2 2 3 3 4 4 4 4 5 5 5 5 5 5 5
4 4 5 7 9 10 12 13 13 14 14 14 14 13 12 12 11 11 11 10 9 8 8 7 5 4 3 2 2 2 1 1 2 3 3 3 3 3 3 3 4 4 4 4
5 4 5 7 9 10 12 13 13 14 15 15 15 15 14 14 13 13 12 12 11 11 10 9 9 7 6 6 5 4 4 4 3 3 2 2 2 2 2 2 2 2 2 2
6 5 5 6 8 10 12 13 13 14 15 15 16 16 16 16 15 14 14 14 13 13 12 11 11 11 10 9 9 8 7 6 5 4 3 3 2 2 2 1 1 1 0 0
7 5 5 6 8 9 11 12 13 14 15 16 16 17 17 18 18 17 17 16 16 15 14 14 13 13 12 12 10 10 9 8 7 6 5 5 4 4 4 3 3 3 3 2
8 6 5 6 7 9 10 12 13 14 15 15 16 17 18 18 18 19 18 18 17 16 16 15 15 14 13 13 12 12 11 10 10 9 8 8 7 7 6 6 5 5 5 5
9 7 6 5 6 8 10 11 13 13 14 15 16 16 17 17 18 19 19 19 18 17 16 16 15 15 14 14 13 13 13 12 12 11 11 10 9 9 8 8 8 8 7 7
10 8 6 5 6 7 9 10 12 13 14 14 15 16 16 17 17 18 19 19 19 18 18 17 17 16 16 16 15 15 14 14 13 13 12 12 11 11 10 10 10 9 9 9
12 9 7 6 5 6 8 9 11 12 13 14 14 15 15 16 16 17 18 18 19 19 19 18 18 17 17 17 17 16 16 15 15 14 14 14 13 13 12 12 11 11 11 10
13 11 9 7 5 5 6 8 9 11 12 13 13 14 14 15 15 16 16 17 18 18 18 18 18 18 18 18 17 16 16 16 16 16 15 15 14 13 13 12 12 12 11 11
15 12 10 8 5 4 5 6 7 9 10 11 12 12 13 13 13 14 15 15 16 16 17 17 17 18 18 18 17 17 16 16 15 15 15 14 14 14 13 13 12 12 11 11
17 14 11 9 6 4 3 4 5 7 8 9 10 11 11 11 12 12 13 13 14 14 15 15 16 16 16 16 16 16 16 15 15 14 14 13 13 13 13 12 12 11 11 11
Wind_Direction
286 288 291 296 298 298 295 292 288 286 285 284 281 280 276 272 267 264 257 253 254 251 248 246 245 246 247 247 247 247 249 249 250 251 253 256 257 258 259 259 259 259 260 261
290 293 295 298 299 297 296 296 290 286 286 285 281 278 275 272 270 264 261 258 256 256 252 249 249 248 248 249 250 250 251 251 251 252 254 256 257 258 259 260 260 260 262 265
296 298 302 302 303 303 301 299 297 292 289 285 282 280 276 273 272 266 265 262 259 258 256 250 249 250 250 250 252 253 253 252 252 253 254 255 258 258 258 260 262 264 266 268
300 304 303 303 307 306 305 303 301 296 292 287 284 280 275 273 269 267 268 264 261 261 259 256 255 253 255 256 257 254 252 252 253 254 255 257 259 259 260 262 264 266 267 269
295 304 305 310 312 310 309 307 304 299 295 290 287 281 277 276 272 268 268 265 260 257 259 259 260 259 258 258 257 250 247 248 250 251 254 257 258 261 262 264 265 266 268 271
294 303 306 313 315 315 315 313 310 304 298 294 291 285 281 277 272 269 267 263 262 262 260 259 260 258 256 255 254 249 246 248 250 252 255 257 258 259 260 262 264 266 267 270
292 305 310 318 321 323 322 319 316 312 307 303 296 290 286 278 271 267 265 263 261 260 258 258 258 254 253 255 253 251 251 252 253 254 255 256 258 259 260 262 264 265 267 270
288 303 313 323 326 328 327 324 321 317 313 309 301 298 292 281 273 268 265 263 262 260 260 262 260 257 254 253 253 255 256 256 256 256 256 256 258 260 260 262 263 264 267 270
284 304 320 328 333 333 333 333 329 325 322 319 311 305 301 290 281 274 269 268 265 264 265 266 265 263 261 259 258 257 256 256 256 256 256 257 258 259 259 260 260 262 265 270
287 313 331 337 339 341 342 343 340 335 330 325 322 315 313 300 293 288 278 273 271 268 269 270 268 265 261 259 257 256 255 255 256 257 260 263 262 259 257 257 257 259 263 268
297 334 345 348 349 349 350 351 351 350 346 340 335 334 333 332 323 305 288 283 279 274 271 270 267 262 257 255 256 256 256 256 256 258 261 262 259 255 255 254 254 256 261 267
314 351 356 356 357 358 357 358 358 359 358 356 356 354 351 349 341 328 314 300 288 277 272 269 269 269 266 262 258 256 256 254 254 255 256 255 253 252 252 251 253 257 261 264
38 13 7 5 6 6 7 7 7 7 7 8 8 7 6 4 360 353 346 340 322 302 287 286 283 279 273 266 258 254 252 253 252 252 251 251 251 248 248 248 250 254 258 264
72 32 20 15 15 15 15 15 15 16 17 19 19 20 20 20 17 13 7 1 352 333 315 303 295 283 271 263 258 252 250 251 251 248 247 247 245 242 241 243 245 250 259 266
91 49 32 25 23 22 22 22 23 25 26 27 28 29 30 30 28 24 20 16 11 1 349 339 327 311 286 262 250 243 242 243 241 237 237 238 236 237 237 239 243 251 258 266
109 68 43 33 29 27 27 29 30 32 33 33 34 35 35 36 37 35 32 29 28 26 22 18 18 19 12 219 204 210 221 228 226 226 228 229 229 228 230 236 241 248 256 265
125 86 57 43 35 32 32 33 35 37 38 39 39 39 40 42 43 42 40 39 39 41 41 42 48 58 70 85 105 120 144 175 191 197 199 201 206 215 221 227 236 246 253 261
133 97 67 51 42 38 37 38 39 41 42 43 43 44 45 47 46 45 44 45 47 49 51 53 58 66 74 80 85 90 97 104 112 128 150 168 179 184 194 208 224 232 241 248
145 115 80 59 48 43 42 42 43 44 45 46 47 48 50 51 50 50 50 51 54 56 59 61 65 70 76 80 82 82 85 89 92 97 107 120 129 133 127 120 125 136 142 117
150 127 95 71 57 49 47 46 46 47 48 50 51 52 54 55 55 56 56 58 59 62 64 67 69 72 75 75 76 76 76 76 79 85 89 92 92 91 90 89 89 90 85 76
156 141 114 86 67 56 51 49 48 49 51 53 54 55 56 57 57 57 58 59 60 62 64 66 68 70 72 72 71 72 72 73 75 78 81 83 84 86 87 85 85 86 83 79
160 151 133 103 78 64 57 53 52 51 52 55 56 57 57 57 58 58 58 59 60 61 63 65 66 68 70 70 70 72 72 72 73 75 76 78 79 81 81 81 81 83 81 77
164 157 144 121 93 74 64 58 55 53 54 55 57 58 58 58 59 59 59 59 60 61 63 65 66 68 69 71 71 72 72 72 73 74 74 75 76 77 78 80 81 80 78 75
168 162 153 136 110 85 70 62 57 55 54 55 57 58 58 58 59 60 60 61 61 62 64 66 67 68 69 70 70 71 72 72 73 74 75 75 75 75 76 77 78 78 75 72
174 169 163 150 128 99 78 67 61 56 54 54 55 57 58 58 58 59 59 60 61 62 64 66 67 67 67 68 69 70 71 72 73 74 74 73 72 72 73 75 75 73 71 68
179 176 171 163 147 117 88 72 63 57 53 52 53 54 56 56 57 57 58 59 60 61 62 64 65 66 66 66 67 68 69 70 71 71 70 70 70 70 70 70 70 69 67 65
184 181 178 174 167 147 109 78 62 55 50 49 50 51 52 53 55 56 56 57 58 59 60 61 62 62 63 64 65 66 66 66 67 67 67 66 67 67 67 67 66 64 61 60
Height
5749 5747 5746 5745 5744 5742 5741 5740 5739 5738 5736 5735 5734 5733 5732 5732 5731 5731 5731 5732 5733 5733 5734 5735 5736 5737 5739 5740 5742 5743 5745 5746 5747 5748 5749 5749 5750 5750 5750 5751 5751 5752 5752 5752
5747 5745 5744 5743 5742 5740 5739 5737 5736 5735 5733 5732 5730 5729 5728 5728 5727 5727 5727 5727 5727 5728 5728 5729 5730 5731 5732 5733 5735 5736 5737 5738 5739 5740 5741 5742 5743 5743 5743 5744 5744 5744 5745 5744
5745 5743 5742 5742 5740 5738 5736 5734 5733 5731 5730 5728 5726 5725 5724 5723 5723 5722 5722 5722 5722 5722 5722 5723 5724 5725 5726 5727 5728 5729 5730 5731 5732 5733 5734 5735 5735 5736 5737 5737 5737 5737 5737 5737
5743 5743 5741 5742 5737 5735 5733 5731 5729 5727 5725 5724 5722 5721 5720 5719 5718 5717 5717 5716 5716 5716 5717 5717 5718 5719 5720 5720 5721 5722 5723 5724 5725 5726 5728 5728 5729 5729 5730 5730 5730 5730 5730 5730
5742 5741 5740 5738 5735 5733 5731 5728 5726 5724 5722 5720 5718 5717 5716 5715 5714 5713 5712 5711 5711 5711 5712 5712 5712 5713 5714 5715 5715 5716 5717 5718 5719 5720 5721 5722 5722 5723 5723 5723 5723 5724 5724 5723
5740 5739 5738 5737 5733 5730 5729 5726 5723 5720 5718 5716 5714 5713 5713 5711 5710 5708 5708 5707 5707 5707 5707 5707 5707 5708 5708 5709 5710 5711 5711 5712 5713 5714 5715 5716 5716 5716 5717 5717 5717 5717 5717 5717
5738 5737 5736 5734 5730 5728 5727 5725 5720 5717 5715 5713 5711 5710 5709 5707 5706 5705 5704 5703 5703 5702 5702 5703 5703 5703 5703 5704 5705 5706 5706 5707 5708 5708 5709 5710 5710 5711 5711 5711 5712 5712 5712 5711
5737 5736 5736 5732 5729 5727 5724 5720 5717 5714 5712 5710 5708 5706 5704 5703 5702 5701 5700 5700 5699 5699 5698 5698 5699 5699 5699 5700 5700 5701 5701 5702 5703 5703 5704 5705 5705 5705 5706 5706 5706 5706 5706 5706
5736 5736 5733 5730 5727 5724 5721 5718 5715 5712 5710 5707 5705 5703 5701 5699 5698 5698 5697 5696 5696 5696 5695 5695 5695 5695 5695 5695 5696 5696 5697 5697 5698 5698 5699 5699 5700 5700 5701 5701 5701 5701 5701 5701
5734 5733 5730 5728 5725 5722 5719 5716 5713 5710 5707 5705 5703 5701 5698 5696 5695 5695 5694 5693 5693 5692 5692 5691 5691 5691 5691 5692 5692 5692 5693 5693 5694 5694 5695 5695 5695 5695 5696 5696 5697 5697 5697 5697
5733 5732 5729 5727 5724 5721 5718 5715 5712 5709 5706 5703 5701 5699 5696 5695 5693 5692 5691 5690 5690 5689 5689 5688 5688 5687 5688 5688 5688 5689 5689 5689 5689 5690 5690 5691 5691 5691 5692 5692 5693 5693 5693 5693
5733 5731 5729 5727 5724 5721 5717 5714 5711 5708 5705 5702 5700 5697 5695 5693 5692 5690 5689 5688 5687 5686 5686 5685 5685 5684 5684 5684 5684 5685 5685 5685 5686 5686 5687 5687 5687 5688 5688 5689 5689 5690 5690 5690
5732 5730 5728 5726 5723 5720 5717 5714 5710 5707 5705 5702 5699 5697 5695 5693 5691 5689 5688 5687 5685 5685 5684 5683 5682 5682 5681 5681 5681 5681 5682 5682 5682 5683 5683 5684 5684 5685 5686 5686 5687 5687 5687 5687
5731 5730 5728 5726 5723 5720 5717 5714 5711 5708 5705 5702 5699 5697 5695 5692 5691 5689 5687 5686 5684 5683 5682 5681 5680 5679 5679 5679 5679 5679 5679 5679 5680 5680 5681 5681 5682 5682 5683 5684 5684 5685 5685 5685
5731 5730 5729 5727 5724 5721 5718 5715 5712 5708 5705 5703 5700 5697 5695 5693 5691 5689 5687 5685 5683 5682 5681 5679 5678 5677 5677 5677 5677 5677 5677 5677 5678 5678 5679 5679 5680 5681 5681 5682 5682 5683 5683 5683
5731 5730 5729 5727 5725 5722 5719 5716 5713 5710 5707 5704 5701 5699 5696 5694 5691 5689 5687 5685 5683 5682 5680 5679 5677 5676 5676 5676 5676 5676 5676 5677 5677 5677 5678 5678 5679 5679 5680 5680 5681 5681 5681 5681
5731 5731 5730 5728 5726 5723 5721 5718 5715 5712 5709 5706 5703 5700 5697 5695 5692 5690 5688 5686 5684 5682 5680 5679 5677 5676 5676 5676 5676 5676 5676 5676 5676 5677 5677 5678 5678 5679 5679 5679 5680 5680 5680 5679
5732 5732 5730 5729 5727 5725 5722 5720 5717 5714 5711 5708 5705 5702 5699 5697 5694 5692 5690 5687 5685 5683 5681 5680 5678 5677 5677 5676 5677 5677 5677 5677 5677 5677 5677 5678 5678 5678 5678 5678 5679 5679 5678 5678
5732 5732 5731 5730 5729 5727 5724 5722 5719 5716 5713 5710 5707 5704 5702 5699 5697 5694 5692 5689 5687 5685 5684 5682 5681 5680 5679 5679 5679 5678 5678 5678 5678 5678 5678 5678 5678 5678 5678 5678 5678 5678 5678 5678
5732 5732 5732 5731 5730 5728 5726 5724 5721 5719 5716 5713 5711 5708 5705 5703 5700 5697 5695 5693 5691 5689 5687 5686 5685 5684 5683 5682 5681 5681 5680 5680 5680 5679 5679 5679 5679 5679 5679 5678 5678 5678 5678 5678
5732 5733 5733 5733 5732 5730 5729 5726 5724 5722 5719 5717 5714 5711 5709 5707 5704 5702 5699 5697 5695 5693 5691 5689 5688 5687 5686 5685 5685 5684 5683 5683 5682 5681 5681 5681 5680 5680 5680 5680 5679 5679 5679 5678
5732 5733 5733 5734 5733 5732 5731 5729 5727 5724 5722 5720 5717 5715 5713 5711 5708 5706 5704 5701 5699 5697 5695 5693 5692 5691 5690 5689 5688 5687 5686 5686 5685 5684 5684 5683 5683 5682 5682 5681 5681 5681 5680 5680
5732 5733 5734 5734 5734 5734 5732 5731 5729 5727 5725 5723 5721 5719 5717 5714 5712 5710 5708 5706 5703 5701 5700 5698 5697 5695 5694 5693 5692 5691 5690 5689 5689 5688 5687 5686 5686 5685 5684 5684 5684 5683 5683 5682
5731 5733 5734 5735 5735 5735 5734 5733 5732 5730 5728 5726 5724 5722 5720 5718 5716 5714 5712 5710 5708 5706 5704 5703 5701 5700 5699 5697 5696 5695 5694 5693 5693 5692 5691 5690 5689 5689 5688 5687 5687 5686 5686 5685
5731 5733 5734 5735 5736 5736 5735 5734 5733 5732 5731 5729 5727 5725 5723 5722 5720 5718 5717 5715 5713 5711 5709 5708 5706 5705 5703 5702 5701 5700 5699 5698 5697 5696 5695 5694 5693 5693 5692 5691 5690 5690 5689 5688
5730 5732 5734 5735 5736 5736 5736 5736 5735 5734 5733 5731 5730 5728 5727 5725 5723 5722 5720 5719 5717 5715 5714 5712 5711 5709 5708 5707 5706 5705 5704 5703 5702 5701 5700 5699 5698 5697 5696 5695 5694 5693 5692 5691
5728 5731 5733 5735 5736 5736 5737 5736 5736 5735 5735 5733 5732 5731 5729 5728 5726 5725 5724 5722 5721 5719 5718 5717 5715 5714 5712 5711 5710 5709 5708 5707 5706 5705 5704 5703 5702 5701 5700 5699 5698 5697 5696 5694